Location: Belba??
(36.4350°N, 30.1358°E)
Time: 07:57:00
(UTC+00:00)

Daily predictions for brighter satellites

Satellite Brightness Start Highest point End
(mag) Time Altitude Azimuth Time Altitude Azimuth Time Altitude Azimuth
Cosmos 2227 Rocket 2.4 16:03:41 10° NNW 16:09:12 53° ENE 16:14:42 10° SE
Hubble Space Telescope 2.3 16:05:54 10° SW 16:09:20 26° S 16:12:45 10° ESE
CZ-4B R/B 3.8 16:05:55 10° SE 16:10:40 34° ENE 16:15:30 10° N
ARGOS 4.2 16:06:37 10° S 16:11:49 52° W 16:17:03 10° NNW
Cosmos 1975 3.0 16:09:04 10° S 16:13:07 82° W 16:17:11 10° N
Cosmos 1733 3.9 16:10:31 10° SSE 16:13:53 31° E 16:17:14 10° NNE
PAYLOAD B 4.3 16:08:53 10° SSE 16:14:15 55° ENE 16:19:36 10° N
CZ-4 R/B 2.9 16:11:59 10° ESE 16:14:53 19° ENE 16:17:49 10° NNE
Okean 2 4.0 16:11:44 10° NNE 16:15:33 35° ENE 16:19:20 10° SE
CZ-4 R/B 4.4 16:13:13 10° SSE 16:17:16 65° ENE 16:21:21 10° N
KORONAS-FOTON 3.8 16:13:28 10° N 16:17:17 57° E 16:21:04 10° SSE
Spot 1 3.9 16:15:11 10° NNE 16:19:24 72° ESE 16:23:27 10° S
Cosmos 1980 Rocket 2.3 16:14:22 10° S 16:19:49 52° ESE 16:25:16 10° NNE
Okean O Rocket 2.6 16:16:48 10° SE 16:20:23 26° ENE 16:24:00 10° NNE
Lacrosse 5 3.1 16:17:09 10° NW 16:21:56 44° SW 16:26:45 10° SSE
Cosmos 2297 Rocket 2.5 16:17:58 10° NNW 16:23:38 73° WSW 16:29:15 10° SSE
Cosmos 2242 Rocket 4.1 16:19:43 10° NNW 16:24:04 65° W 16:28:25 10° S
Cosmos 468 Rocket 4.2 16:19:22 10° N 16:24:22 48° ENE 16:29:21 10° SE
Cosmos 2369 3.7 16:19:24 10° S 16:25:02 63° ESE 16:30:41 10° NNE
Cosmos 1707 3.1 16:23:15 10° NNW 16:27:02 68° W 16:30:48 10° S
USA 229 DEB 4.4 16:22:04 10° NNW 16:29:10 44° NE 16:36:39 10° ESE
USA 229 4.4 16:22:10 10° NNW 16:29:15 44° NE 16:36:44 10° ESE
CZ-4B DEB 4.4 16:24:58 10° S 16:30:24 78° WSW 16:35:53 10° NNW
CZ-4C R/B 4.2 16:23:37 10° NW 16:31:04 48° WSW 16:39:23 10° S
ASTEX 1 3.4 16:27:08 10° N 16:32:08 80° E 16:37:07 10° S
Cosmos 2278 4.3 16:27:53 10° SSE 16:32:58 35° ESE 16:38:04 10° NE
SL-16 R/B 3.5 16:33:53 10° SE 16:37:15 16° E 16:40:36 10° ENE
YAOGAN 1 2.7 16:34:43 10° SSE 16:38:53 51° ENE 16:43:04 10° N
Cosmos 1850 Rocket 4.0 16:33:55 10° S 16:39:01 64° ESE 16:44:13 10° NNE
Cosmos 540 Rocket 3.7 16:34:36 10° N 16:39:32 47° ENE 16:44:26 10° SE
Cosmos 1626 2.2 16:36:34 10° N 16:40:12 74° W 16:43:47 10° S
Cosmos 1674 Rocket 4.3 16:41:09 10° NNE 16:45:07 32° ENE 16:48:54 11° SE
Landsat 5 4.5 16:41:53 10° NE 16:45:45 28° E 16:49:32 10° SSE
Cosmos 841 Rocket 4.1 16:41:39 10° N 16:46:21 34° ENE 16:49:45 17° ESE
Meteor 2-10 4.2 16:42:08 10° S 16:47:47 68° E 16:53:20 10° NNE
SEDSat Delta rocket 4.4 16:42:34 10° WSW 16:48:29 47° SSE 16:52:53 20° ESE
Cosmos 2279 Rocket 3.9 16:45:16 10° N 16:51:33 80° E 16:57:48 10° S
Cosmos 2142 Rocket 4.4 16:48:01 10° N 16:54:22 83° E 17:00:35 10° S
Cosmos 2180 Rocket 4.5 16:48:16 10° N 16:54:27 63° E 17:00:42 10° SSE
Cosmos 1763 Rocket 3.7 16:50:19 10° NNW 16:55:22 71° WSW 17:00:25 10° S
NOSS 3-1 (A) 4.2 16:48:52 10° NNW 16:56:46 87° ENE 17:05:54 10° SSE
DMSP B5D1-3 4.5 16:52:59 10° NNE 16:58:07 88° ESE 17:03:13 10° SSW
IRIDIUM 104 4.3 16:53:32 10° SSE 16:58:38 58° E 17:03:45 10° N
Cosmos 2219 3.5 16:54:00 10° NNW 16:59:44 71° WSW 17:05:26 10° SSE
Cosmos 2221 Rocket 3.5 16:57:09 10° N 17:01:39 72° E 17:06:11 10° SSE
DELTA 2 R/B(2) 4.2 17:01:02 10° WNW 17:03:01 58° NNE 17:03:55 38° ENE
ISS -1.3 17:02:10 10° N 17:03:24 12° NNE 17:03:48 11° NNE
Cosmos 1741 Rocket 4.3 17:02:00 10° SSW 17:07:17 72° WNW 17:12:34 10° NNE
HJ-1C 3.5 17:04:19 10° S 17:07:23 64° W 17:10:30 10° NNW
IRIDIUM 114 4.2 17:02:35 10° S 17:07:46 73° E 17:12:58 10° N
SL-14 R/B 3.1 17:04:01 10° N 17:07:58 73° E 17:11:41 12° SSE
Cosmos 1805 4.3 17:05:51 10° SSW 17:09:34 46° W 17:13:19 10° N
Cosmos 2263 Rocket 2.6 17:05:16 10° N 17:10:38 41° ENE 17:12:35 31° ESE
Meteor 2-14 Rocket 4.4 17:07:25 10° S 17:13:29 85° W 17:19:35 10° N
USA 186 3.7 17:16:11 19° NNE 17:16:11 19° NNE 17:17:24 10° N
OAO 2 Rocket 3.5 17:10:00 10° WSW 17:14:46 54° SSE 17:16:15 39° ESE
Cosmos 1378 Rocket 3.4 17:10:42 10° N 17:15:05 72° E 17:18:14 18° SSE
IGS 5A 4.4 17:17:09 31° NE 17:17:09 31° NE 17:20:07 10° N
IRIDIUM 103 4.3 17:11:41 10° S 17:16:54 89° E 17:22:09 10° N
Cosmos 2082 3.6 17:13:40 10° NNW 17:19:26 88° ENE 17:23:52 17° SSE
Cosmos 1766 3.3 17:18:01 10° S 17:21:54 77° W 17:25:49 10° N
Okean-O 3.3 17:23:08 35° NE 17:23:08 35° NE 17:26:36 10° N
CSL-04 Debris 4.2 17:24:34 36° SE 17:26:34 57° ENE 17:31:51 10° N
Cosmos 1814 Rocket 4.4 17:21:50 10° N 17:26:45 40° ENE 17:26:48 40° ENE
Cosmos 1726 3.3 17:24:49 10° SSW 17:28:16 43° W 17:31:46 10° N
Meteor 2-21 Rocket 4.3 17:23:11 10° S 17:29:14 88° E 17:35:19 10° N
BREEZE-M DEB (TANK) 4.4 17:20:05 10° SSW 17:30:40 30° SSE 17:30:59 30° SE
CZ-2C R/B 1.9 17:27:37 10° W 17:30:18 36° SW 17:30:18 36° SW
IRS-1C Rocket 4.3 17:31:09 46° E 17:31:25 46° ENE 17:36:26 10° N
Cosmos 2195 Rocket 4.4 17:27:29 10° S 17:33:33 61° E 17:39:41 10° NNE
Cosmos 1428 Rocket 4.4 17:28:23 10° S 17:34:23 59° E 17:40:27 10° NNE
CZ-3 Stage 3 3.9 17:32:31 10° W 17:38:12 61° S 17:47:28 31° ESE
ATLAS 5 CENTAUR R/B 4.2 17:14:21 10° SW 17:38:28 29° S 17:43:06 22° SSE
USA 267 4.4 17:32:52 10° SSE 17:38:53 38° SW 17:44:55 10° WNW
Meteor 2-16 Rocket 4.5 17:41:01 10° S 17:47:08 78° W 17:53:18 10° N
CZ-4 R/B 3.2 17:45:53 10° SSW 17:49:33 31° W 17:53:16 10° NW
Hubble Space Telescope 2.7 17:46:41 10° WSW 17:48:55 20° SSW 17:48:55 20° SSW
CRYOSAT 2 4.4 17:50:36 65° NNE 17:50:36 65° NNE 17:54:52 10° N
Cosmos 2026 Rocket 3.7 17:48:40 35° S 17:51:22 72° E 17:57:23 10° N
Cosmos 2285 Rocket 3.9 17:45:26 10° NNW 17:51:45 66° ENE 17:52:21 62° E
Timation 2 Rocket 3.9 17:47:04 10° NNW 17:53:30 86° WSW 17:55:08 52° SSE
Cosmos 2322 Rocket 4.4 17:48:34 10° S 17:48:49 11° S 17:48:49 11° S
Okean O Rocket 3.8 17:53:09 10° SSW 17:56:38 23° W 18:00:09 10° NW
CSL-04 Rocket 3.5 17:57:05 69° S 17:57:44 84° WSW 18:03:07 10° NNW
Cosmos 968 Rocket 4.0 18:02:12 10° SSW 18:07:22 59° WNW 18:12:34 10° N
Meteor 1-24 Rocket 4.3 18:14:41 10° N 18:18:19 45° NNW 18:18:19 45° NNW
SL-16 R/B 2.6 18:15:11 10° SW 18:20:45 59° WNW 18:26:22 10° NNE
Resurs 01 Rocket 4.5 18:42:04 12° NNW 18:42:04 12° NNW 18:42:20 10° NNW
Cosmos 2263 Rocket 4.0 18:49:46 10° NW 18:54:16 24° WSW 18:54:19 24° WSW
